Thermopolis, WY

3:32 AM MDT on August 22, 2017 (GMT -0600)
Thermopolis

Weather History for KTBX - October, 2013

Change the Weather History Date:

Friday, October 25, 2013

  Actual Average (KWRL) Record (KWRL)
Temperature  
Mean Temperature 46 °F -  
Max Temperature 53 °F 60 °F 81 °F (2014)
Min Temperature 39 °F 30 °F 16 °F (2001)
Degree Days  
Heating Degree Days 19    
Moisture  
Dew Point 28 °F    
Average Humidity 52    
Maximum Humidity 76    
Minimum Humidity 30    
Precipitation  
Precipitation 0.00 in - - ()
Sea Level Pressure  
Sea Level Pressure 30.35 in    
Wind  
Wind Speed 11 mph (WNW)    
Max Wind Speed 30 mph    
Max Gust Speed -    
Visibility 10 miles    
Events      
Averages and records for this station are not official NWS values.
T = Trace of Precipitation, MM = Missing Value Source: NWS Daily Summary

Daily Weather History Graph

Daily Weather History Graph

Search for Another Location

Airport or City:

Trip Planner

Search our weather history database for the weather conditions in past years. The results will help you decide how hot, cold, wet, or windy it might be!

Date:

Astronomy

Oct. 25, 2013 Rise Set
Actual Time 7:39 AM MDT 6:13 PM MDT
Civil Twilight 7:10 AM MDT 6:42 PM MDT
Nautical Twilight 6:36 AM MDT 7:16 PM MDT
Astronomical Twilight 6:03 AM MDT 7:49 PM MDT
Moon 11:33 PM MDT (10/25) 1:24 PM MDT (10/25)
Length of Visible Light 11h 32m
Length of Day
10h 33m
Waning Gibbous, 62% of the Moon is Illuminated
Oct 25
Waning Gibbous
Oct 26
Last Quarter
Nov 3
New
Nov 9
First Quarter
Nov 17
Full

Hourly Weather History & Observations

Time (MDT) Temp. Windchill Dew Point Humidity Pressure Visibility Wind Dir Wind Speed Gust Speed Precip Events Conditions
12:15 AM 41.0 °F 34.7 °F 30.2 °F 65% 30.31 in 10.0 mi SSE 10.4 mph - N/A   Clear
12:35 AM 41.0 °F 34.7 °F 30.2 °F 65% 30.31 in 10.0 mi SSE 10.4 mph - N/A   Clear
12:55 AM 41.0 °F 35.2 °F 30.2 °F 65% 30.31 in 10.0 mi SSE 9.2 mph - N/A   Clear
1:15 AM 41.0 °F 35.2 °F 30.2 °F 65% 30.31 in 10.0 mi SSE 9.2 mph - N/A   Clear
1:35 AM 42.8 °F 36.6 °F 30.2 °F 61% 30.31 in 10.0 mi SSE 11.5 mph - N/A   Clear
1:55 AM 41.0 °F 34.3 °F 30.2 °F 65% 30.31 in 10.0 mi SSE 11.5 mph - N/A   Clear
2:15 AM 41.0 °F 33.9 °F 32.0 °F 70% 30.31 in 10.0 mi SSE 12.7 mph - N/A   Clear
2:35 AM 41.0 °F 33.9 °F 32.0 °F 70% 30.31 in 10.0 mi SSE 12.7 mph - N/A   Clear
2:55 AM 41.0 °F 33.9 °F 32.0 °F 70% 30.32 in 10.0 mi SSE 12.7 mph - N/A   Clear
3:15 AM 39.2 °F 33.0 °F 32.0 °F 75% 30.32 in 10.0 mi SSE 9.2 mph - N/A   Clear
3:35 AM 41.0 °F 34.7 °F 32.0 °F 70% 30.32 in 10.0 mi SSE 10.4 mph - N/A   Clear
3:55 AM 41.0 °F 35.2 °F 32.0 °F 70% 30.32 in 10.0 mi South 9.2 mph - N/A   Clear
4:15 AM 41.0 °F 34.3 °F 32.0 °F 70% 30.31 in 10.0 mi SSW 11.5 mph - N/A   Clear
4:35 AM 41.0 °F 34.7 °F 32.0 °F 70% 30.31 in 10.0 mi SSW 10.4 mph - N/A   Clear
4:55 AM 41.0 °F 34.3 °F 33.8 °F 76% 30.31 in 10.0 mi South 11.5 mph - N/A   Clear
5:15 AM 42.8 °F 37.5 °F 33.8 °F 70% 30.31 in 10.0 mi South 9.2 mph - N/A   Clear
5:35 AM 42.8 °F 38.0 °F 32.0 °F 66% 30.32 in 10.0 mi South 8.1 mph - N/A   Clear
5:55 AM 42.8 °F 39.3 °F 32.0 °F 66% 30.32 in 10.0 mi South 5.8 mph - N/A   Clear
6:15 AM 42.8 °F 39.3 °F 32.0 °F 66% 30.32 in 10.0 mi South 5.8 mph - N/A   Clear
6:35 AM 44.6 °F 41.4 °F 32.0 °F 61% 30.32 in 10.0 mi South 5.8 mph - N/A   Clear
6:55 AM 42.8 °F 40.1 °F 33.8 °F 70% 30.32 in 10.0 mi South 4.6 mph - N/A   Clear
7:15 AM 44.6 °F - 30.2 °F 57% 30.31 in 10.0 mi Calm Calm - N/A   Clear
7:35 AM 51.8 °F - 21.2 °F 30% 30.31 in 10.0 mi Calm Calm - N/A   Clear
7:55 AM 51.8 °F - 21.2 °F 30% 30.32 in 10.0 mi Calm Calm - N/A   Clear
8:15 AM 51.8 °F - 21.2 °F 30% 30.32 in 10.0 mi Calm Calm - N/A   Clear
8:35 AM 46.4 °F - 30.2 °F 53% 30.32 in 10.0 mi Calm Calm - N/A   Clear
8:55 AM 50.0 °F - 21.2 °F 32% 30.32 in 10.0 mi Calm Calm - N/A   Clear
9:15 AM 51.8 °F - 21.2 °F 30% 30.33 in 10.0 mi Calm Calm - N/A   Clear
9:35 AM 51.8 °F - 21.2 °F 30% 30.34 in 10.0 mi Calm Calm - N/A   Clear
9:55 AM 50.0 °F - 23.0 °F 35% 30.34 in 10.0 mi Calm Calm - N/A   Clear
10:15 AM 50.0 °F - 23.0 °F 35% 30.34 in 10.0 mi NNW 4.6 mph - N/A   Clear
10:35 AM 50.0 °F - 26.6 °F 40% 30.34 in 10.0 mi NNW 4.6 mph - N/A   Clear
10:55 AM 50.0 °F - 26.6 °F 40% 30.34 in 10.0 mi NNW 5.8 mph - N/A   Clear
11:15 AM 50.0 °F - 28.4 °F 43% 30.34 in 10.0 mi NNW 8.1 mph - N/A   Clear
11:35 AM 50.0 °F - 28.4 °F 43% 30.35 in 10.0 mi NW 8.1 mph - N/A   Clear
11:55 AM 50.0 °F - 28.4 °F 43% 30.35 in 10.0 mi NNW 6.9 mph - N/A   Clear
12:15 PM 51.8 °F - 28.4 °F 41% 30.36 in 10.0 mi NNW 8.1 mph - N/A   Clear
12:35 PM 51.8 °F - 26.6 °F 38% 30.35 in 10.0 mi NNW 8.1 mph - N/A   Clear
12:55 PM 51.8 °F - 23.0 °F 33% 30.36 in 10.0 mi NNW 6.9 mph - N/A   Clear
1:15 PM 51.8 °F - 23.0 °F 33% 30.35 in 10.0 mi NW 6.9 mph - N/A   Clear
1:35 PM 53.6 °F - 24.8 °F 33% 30.34 in 10.0 mi WNW 8.1 mph - N/A   Clear
1:55 PM 53.6 °F - 23.0 °F 30% 30.34 in 10.0 mi WNW 10.4 mph - N/A   Clear
2:15 PM 53.6 °F - 24.8 °F 33% 30.34 in 10.0 mi NNW 13.8 mph - N/A   Clear
2:35 PM 51.8 °F - 21.2 °F 30% 30.34 in 10.0 mi NW 12.7 mph - N/A   Clear
2:55 PM 51.8 °F - 21.2 °F 30% 30.34 in 10.0 mi NW 11.5 mph - N/A   Clear
3:15 PM 51.8 °F - 21.2 °F 30% 30.34 in 10.0 mi NNW 15.0 mph - N/A   Clear
3:35 PM 51.8 °F - 21.2 °F 30% 30.34 in 10.0 mi NNW 16.1 mph - N/A   Clear
3:55 PM 51.8 °F - 23.0 °F 33% 30.34 in 10.0 mi NNW 16.1 mph - N/A   Clear
4:15 PM 50.0 °F - 23.0 °F 35% 30.34 in 10.0 mi NNW 19.6 mph - N/A   Clear
4:35 PM 50.0 °F - 26.6 °F 40% 30.35 in 10.0 mi NNW 19.6 mph - N/A   Clear
4:55 PM 48.2 °F - 28.4 °F 46% 30.34 in 10.0 mi NW 24.2 mph - N/A   Clear
5:15 PM 46.4 °F 37.9 °F 28.4 °F 50% 30.35 in 10.0 mi NW 25.3 mph - N/A   Clear
5:35 PM 46.4 °F 38.1 °F 30.2 °F 53% 30.35 in 10.0 mi NW 24.2 mph - N/A   Clear
5:55 PM 46.4 °F 37.7 °F 28.4 °F 50% 30.35 in 10.0 mi NW 26.5 mph - N/A   Clear
6:15 PM 44.6 °F 35.3 °F 30.2 °F 57% 30.36 in 10.0 mi NW 26.5 mph - N/A   Clear
6:35 PM 44.6 °F 35.1 °F 32.0 °F 61% 30.36 in 10.0 mi NW 27.6 mph - N/A   Clear
6:55 PM 42.8 °F 32.5 °F 32.0 °F 66% 30.36 in 10.0 mi NW 28.8 mph - N/A   Clear
7:15 PM 42.8 °F 32.3 °F 32.0 °F 66% 30.36 in 10.0 mi NW 29.9 mph - N/A   Clear
7:35 PM 42.8 °F 32.3 °F 32.0 °F 66% 30.36 in 10.0 mi NW 29.9 mph - N/A   Clear
7:55 PM 42.8 °F 32.3 °F 30.2 °F 61% 30.37 in 10.0 mi NW 29.9 mph - N/A   Clear
8:15 PM 42.8 °F 32.3 °F 30.2 °F 61% 30.37 in 10.0 mi NW 29.9 mph - N/A   Mostly Cloudy
8:35 PM 42.8 °F 32.3 °F 32.0 °F 66% 30.38 in 10.0 mi NW 29.9 mph - N/A   Mostly Cloudy
8:55 PM 42.8 °F 32.9 °F 32.0 °F 66% 30.38 in 10.0 mi NW 26.5 mph - N/A   Clear
9:15 PM 41.0 °F 30.7 °F 32.0 °F 70% 30.39 in 10.0 mi NW 25.3 mph - N/A   Clear
9:35 PM 42.8 °F 33.1 °F 30.2 °F 61% 30.39 in 10.0 mi NW 25.3 mph - N/A   Clear
9:55 PM 42.8 °F 33.1 °F 28.4 °F 57% 30.40 in 10.0 mi WNW 25.3 mph - N/A   Clear
10:15 PM 42.8 °F 33.8 °F 28.4 °F 57% 30.42 in 10.0 mi WNW 21.9 mph - N/A   Clear
10:35 PM 44.6 °F 36.6 °F 28.4 °F 53% 30.43 in 10.0 mi WNW 19.6 mph - N/A   Clear
10:55 PM 44.6 °F 36.6 °F 26.6 °F 49% 30.43 in 10.0 mi WNW 19.6 mph - N/A   Clear
11:15 PM 44.6 °F 37.2 °F 26.6 °F 49% 30.43 in 10.0 mi WNW 17.3 mph - N/A   Clear
11:35 PM 44.6 °F 37.4 °F 28.4 °F 53% 30.43 in 10.0 mi WNW 16.1 mph - N/A   Clear
11:55 PM 44.6 °F 38.1 °F 28.4 °F 53% 30.44 in 10.0 mi WNW 13.8 mph - N/A   Clear